Location: Days
(41.3591°N, 106.7339°W)
Time: 19:57:33
(UTC+00:00)

RS-15 - Pass Details

Date: 02 July 2022
Orbit: 1881 x 2163 km, 64.8° (Epoch: 15 August)

Event Time Altitude Azimuth Distance (km) Brightness Sun altitude
Rises 05:29:21 0° 324° (NW) 5,696 11.9 -21.4°
Reaches altitude 10° 05:33:02 10° 329° (NNW) 4,691 11.2 -21.7°
Maximum altitude 05:45:07 54° 46° (NE) 2,501 8.6 -22.6°
Enters shadow 05:54:47 17° 118° (ESE) 4,033 9.3 -23.2°
